Location: Liberec
(50.7830°N, 15.0500°E)
Time: 03:13:15
(UTC+01:00)

ISS - Pass Details

Date: 07 October 2020
Orbit: 417 x 420 km, 51.6° (Epoch: 25 October)

Event Time Altitude Azimuth Distance (km) Brightness Sun altitude
Rises 19:34:12 0° 280° (W) 2,368 2.2 -11.9°
Reaches altitude 10° 19:37:14 10° 250° (WSW) 1,500 0.1 -12.4°
Maximum altitude 19:38:45 13° 223° (SW) 1,351 -0.7 -12.7°
Drops below altitude 10° 19:40:16 10° 196° (SSW) 1,496 -0.8 -12.9°
Sets 19:43:18 0° 166° (SSE) 2,354 -0.2 -13.4°
Enters shadow 19:43:22 - 165° (SSE) 2,381 -0.1 -13.4°
